Flag for Malaysia Weather past 2 weeks in Johor Bahru, Malaysia

Now
88 °F

Partly sunny.


Feels Like: 98 °F
Forecast: 78 / 90 °F
Wind: 6 mph from South

Location: Singapore / Paya Lebar

Current Time: Jun 30, 2015 at 11:47:38 AM

Latest Report: Jun 30, 2015 at 11:00 AM


Visibility: N/A

Pressure: 29.95 "Hg

Humidity: 66%

Dew point: 75 °F

Location of Johor BahruLocation

Historic Weather in Johor Bahru — Graph

°F

Johor Bahru temperature yesterday

Maximum temperature yesterday: 91 °F (at 2:00 PM)
Minimum temperature yesterday: 82 °F (at 5:00 AM)
Average temperature yesterday: 87 °F

Past Weeks' High & Low Weather Summary

 TemperatureHumidityPressure
High91 °F (Jun 18, 3:00 PM)89% (Jun 16, 7:00 AM)29.98 "Hg (Jun 16, 7:00 AM)
Low77 °F (Jun 16, 5:00 AM)52% (Jun 27, 3:00 PM)29.71 "Hg (Jun 15, 4:00 PM)
Average86 °F73%29.82 "Hg
* Reported Jun 15 10:00 AM — Jun 30 10:00 AM, Johor Bahru, Weather by CustomWeather, © 2015

Note: Actual official high and low records may vary slightly from our data, if they occured in-between our weather recording intervals... More about our weather records

Advertising

Johor Bahru weather history for previous 24 hours

 ConditionsComfort  
Time TempWeatherWind HumidityBarometerVisibility
10:00 AM
Tue, Jun 30
86 °FPartly sunny.7 mph70%29.95 "HgN/A
9:00 AM84 °FPartly sunny.8 mph79%29.92 "HgN/A
8:00 AM84 °FPartly sunny.5 mph79%29.92 "HgN/A
7:00 AM82 °FPassing clouds.3 mph89%29.89 "HgN/A
6:00 AM82 °FPassing clouds.5 mph89%29.89 "HgN/A
5:00 AM82 °FPassing clouds.6 mph89%29.86 "HgN/A
11:00 PM
Mon, Jun 29
84 °FPassing clouds.7 mph84%29.92 "HgN/A
10:00 PM86 °FPassing clouds.9 mph79%29.92 "HgN/A
9:00 PM86 °FPassing clouds.8 mph79%29.89 "HgN/A
8:00 PM88 °FPassing clouds.9 mph66%29.89 "HgN/A
7:00 PM88 °FPartly sunny.9 mph66%29.86 "HgN/A
6:00 PM90 °FPartly sunny.10 mph63%29.86 "HgN/A
5:00 PM91 °FPartly sunny.10 mph56%29.86 "HgN/A
4:00 PM91 °FPartly sunny.13 mph52%29.86 "HgN/A
3:00 PM91 °FPartly sunny.13 mph52%29.89 "HgN/A
2:00 PM91 °FPartly sunny.9 mph56%29.92 "HgN/A
1:00 PM90 °FPartly sunny.8 mph59%29.95 "HgN/A
12:00 PM90 °FPartly sunny.9 mph59%29.95 "HgN/A
11:00 AM88 °FPartly sunny.9 mph66%29.98 "HgN/A
Weather by CustomWeather, © 2015

See weather overviewHow to use our weather pages